SR5NLK-1 Weather Reports


Display with metric or nautical units.
time (UTC)temp
F
wind
direction
speed
MPH
gust
MPH
rain 1hr
in
rain 24hr
in
rain mn
in
humidity
%
barometer
mb
20260508025226 50 337 4.0 9.0 0.00 0.00 0.00 82 1053.6
20260508024726 50 292 2.0 6.0 0.00 0.00 0.00 82 974.8
20260508024226 50 0 6.0 7.0 0.00 0.00 0.00 82 1005.1
20260508023726 50 0 4.0 6.0 0.00 0.00 0.00 82 986.4
20260508023226 50 22 5.0 7.0 0.00 0.00 0.00 82 1051.5
20260508022727 50 0 6.0 6.0 0.00 0.00 0.00 82 1016.6
20260508022226 50 45 2.0 6.0 0.00 0.00 0.00 82 1024.1
20260508022125 50 0 6.0 6.0 0.00 0.00 0.00 82 917.5
20260508021726 50 22 2.0 6.0 0.00 0.00 0.00 82 980.7
20260508021226 50 315 4.0 8.0 0.00 0.00 0.00 82 1067.8
20260508020726 50 0 5.0 8.0 0.00 0.00 0.00 81 1055.4
20260508020226 50 0 4.0 5.0 0.00 0.00 0.00 81 1003.4
20260508015726 50 0 5.0 8.0 0.00 0.00 0.00 81 1001.0
20260508015227 50 337 3.0 8.0 0.00 0.00 0.00 81 981.1
20260508014825 50 22 6.0 8.0 0.00 0.00 0.00 81 971.1
20260508014726 50 337 5.0 8.0 0.00 0.00 0.00 81 997.3
20260508014226 50 22 7.0 8.0 0.00 0.00 0.00 80 968.4
20260508013726 50 0 7.0 8.0 0.00 0.00 0.00 80 1033.7
20260508013226 50 22 8.0 10.0 0.00 0.00 0.00 80 922.3
20260508012726 50 337 7.0 8.0 0.00 0.00 0.00 80 1081.5
20260508012226 50 0 2.0 10.0 0.00 0.00 0.00 80 1021.5
20260508011726 50 0 5.0 6.0 0.00 0.00 0.00 80 1081.5
20260508011525 50 0 4.0 6.0 0.00 0.00 0.00 80 966.6
20260508011226 50 337 3.0 6.0 0.00 0.00 0.00 80 1078.3
20260508010726 50 22 2.0 6.0 0.00 0.00 0.00 79 1007.9
20260508010226 50 0 3.0 6.0 0.00 0.00 0.00 79 967.2
20260508005726 50 22 3.0 8.0 0.00 0.00 0.00 79 1013.5
20260508005226 50 0 4.0 6.0 0.00 0.00 0.00 79 972.4
20260508004726 50 45 3.0 8.0 0.00 0.00 0.00 79 1049.0
20260508004225 50 0 2.0 9.0 0.00 0.00 0.00 79 950.1
20260508003726 51 0 3.0 6.0 0.00 0.00 0.00 79 1066.3
20260508003226 51 22 3.0 3.0 0.00 0.00 0.00 79 1077.4
20260508002726 51 337 2.0 6.0 0.00 0.00 0.00 79 1071.0
20260508002226 51 337 6.0 6.0 0.00 0.00 0.00 79 1015.0
20260508001726 51 45 5.0 7.0 0.00 0.00 0.00 79 1025.0
20260508001226 51 337 7.0 7.0 0.00 0.00 0.00 79 972.9
20260508000925 51 337 2.0 6.0 0.00 0.00 0.00 79 1055.3
20260508000728 51 22 3.0 7.0 0.00 0.00 0.00 79 1007.3
20260508000227 51 0 10.0 11.0 0.00 0.00 0.00 79 1017.1
20260507235727 51 0 5.0 7.0 0.00 0.00 0.00 79 971.7
20260507235226 51 0 3.0 8.0 0.00 0.00 0.00 79 979.7
20260507234726 51 22 3.0 8.0 0.00 0.00 0.00 79 938.2
20260507234227 51 337 5.0 8.0 0.00 0.00 0.00 79 1016.6
20260507233736 51 337 2.0 8.0 0.00 0.00 0.00 79 893.9
20260507233727 51 337 2.0 8.0 0.00 0.00 0.00 79 893.9
20260507233626 51 0 4.0 8.0 0.00 0.00 0.00 79 1013.7
20260507233227 51 337 3.0 8.0 0.00 0.00 0.00 79 930.7
20260507232727 51 45 6.0 7.0 0.00 0.00 0.00 79 980.9
20260507232227 51 337 4.0 5.0 0.00 0.00 0.00 79 1010.4
20260507231727 51 22 4.0 8.0 0.00 0.00 0.00 79 1012.3
20260507231227 51 22 8.0 9.0 0.00 0.00 0.00 79 1046.0
20260507230727 51 22 6.0 10.0 0.00 0.00 0.00 79 1036.6
20260507230326 51 0 5.0 10.0 0.00 0.00 0.00 79 1026.5
20260507230227 51 22 2.0 10.0 0.00 0.00 0.00 79 975.8
20260507225727 51 292 4.0 8.0 0.00 0.00 0.00 79 1100.3
20260507225227 51 315 3.0 10.0 0.00 0.00 0.00 79 983.4
20260507224727 51 0 2.0 10.0 0.00 0.00 0.00 79 1023.7
20260507224227 51 0 10.0 10.0 0.00 0.00 0.00 79 1016.2
20260507223727 52 22 4.0 9.0 0.00 0.00 0.00 78 1052.2
20260507223227 52 45 2.0 9.0 0.00 0.00 0.00 78 1051.5
20260507223026 52 0 9.0 9.0 0.00 0.00 0.00 78 1061.5
20260507222727 52 0 5.0 9.0 0.00 0.00 0.00 78 1052.2
20260507222227 52 337 4.0 6.0 0.00 0.00 0.00 78 1055.3
20260507221727 52 0 2.0 6.0 0.00 0.00 0.00 78 961.4
20260507221227 52 292 1.0 8.0 0.00 0.00 0.00 78 974.7
20260507220727 52 337 8.0 8.0 0.00 0.00 0.00 77 1012.0
20260507220227 52 0 3.0 10.0 0.00 0.00 0.00 78 974.8
20260507215726 52 90 2.0 10.0 0.00 0.00 0.00 77 1052.2
20260507215227 52 0 3.0 7.0 0.00 0.00 0.00 77 1070.1
20260507214727 52 45 5.0 10.0 0.00 0.00 0.00 77 1037.3
20260507214227 52 337 6.0 10.0 0.00 0.00 0.00 77 1094.0
20260507213727 52 0 5.0 8.0 0.00 0.00 0.00 77 988.4
20260507213227 52 0 6.0 8.0 0.00 0.00 0.00 77 1053.3
20260507212727 53 0 5.0 7.0 0.00 0.00 0.00 77 1039.7
20260507212426 53 22 7.0 10.0 0.00 0.00 0.00 77 1004.1
20260507212227 53 22 6.0 10.0 0.00 0.00 0.00 77 1019.7
20260507211727 53 22 5.0 8.0 0.00 0.00 0.00 76 1033.4
20260507211227 53 0 8.0 8.0 0.00 0.00 0.00 76 1001.0
20260507210727 53 22 6.0 7.0 0.00 0.00 0.00 76 1100.3
20260507210227 53 0 4.0 4.0 0.00 0.00 0.00 76 1078.4
20260507205727 53 337 5.0 6.0 0.00 0.00 0.00 76 1042.8
20260507205227 53 0 6.0 10.0 0.00 0.00 0.00 76 1001.0
20260507205126 53 0 7.0 7.0 0.00 0.00 0.00 76 1055.3
20260507204727 53 0 2.0 8.0 0.00 0.00 0.00 76 1084.6
20260507204227 53 315 4.0 6.0 0.00 0.00 0.00 76 1042.8
20260507203727 53 45 2.0 6.0 0.00 0.00 0.00 76 1001.0
20260507203227 53 315 4.0 6.0 0.00 0.00 0.00 76 1081.5
20260507202727 53 337 3.0 5.0 0.00 0.00 0.00 76 1036.5
20260507202227 53 315 3.0 6.0 0.00 0.00 0.00 76 1087.8
20260507201826 53 292 5.0 6.0 0.00 0.00 0.00 76 1049.1
20260507201727 53 292 4.0 4.0 0.00 0.00 0.00 76 1075.2
20260507201227 53 270 2.0 6.0 0.00 0.00 0.00 76 1004.1
20260507200727 53 292 4.0 5.0 0.00 0.00 0.00 76 1084.7
20260507200227 53 67 1.0 6.0 0.00 0.00 0.00 76 991.6
20260507195727 54 292 4.0 6.0 0.00 0.00 0.00 76 1030.2
20260507195227 54 292 3.0 4.0 0.00 0.00 0.00 76 1075.2
20260507194727 54 270 2.0 5.0 0.00 0.00 0.00 76 1081.5
20260507194526 54 292 2.0 6.0 0.00 0.00 0.00 76 1036.5
20260507194227 54 292 3.0 6.0 0.00 0.00 0.00 76 1062.7
20260507193727 54 315 4.0 4.0 0.00 0.00 0.00 76 1078.4
20260507193227 54 315 4.0 6.0 0.00 0.00 0.00 76 1049.3
20260507192727 54 315 2.0 5.0 0.00 0.00 0.00 76 1042.8
20260507192227 54 0 3.0 4.0 0.00 0.00 0.00 76 1097.2
20260507191727 54 315 3.0 6.0 0.00 0.00 0.00 76 1075.2
20260507191226 54 315 1.0 3.0 0.00 0.00 0.00 75 1081.5
20260507190727 54 0 0.0 25.0 0.00 0.00 0.00 75 1078.9
20260507190227 54 292 3.0 4.0 0.00 0.00 0.00 75 1053.7
20260507185727 54 292 0.0 6.0 0.00 0.00 0.00 75 1084.7
20260507185227 54 315 5.0 7.0 0.00 0.00 0.00 75 1078.4
20260507184727 54 292 7.0 7.0 0.00 0.00 0.00 75 1078.4
20260507184227 54 337 3.0 5.0 0.00 0.00 0.00 75 1036.6
20260507183926 54 337 3.0 7.0 0.00 0.00 0.00 75 1010.4
20260507183727 54 292 2.0 7.0 0.00 0.00 0.00 75 1072.1
20260507183227 54 315 5.0 5.0 0.00 0.00 0.00 75 1078.4
20260507182737 54 315 5.0 8.0 0.00 0.00 0.00 75 1087.8
20260507182727 54 315 5.0 8.0 0.00 0.00 0.00 75 1087.8
20260507182227 54 315 1.0 7.0 0.00 0.00 0.00 75 1084.7
20260507181727 54 0 4.0 7.0 0.00 0.00 0.00 75 1072.1
20260507181633 54 315 5.0 9.0 0.00 0.00 0.00 74 1035.0
20260507181227 54 337 6.0 8.0 0.00 0.00 0.00 74 1066.3
20260507180727 54 315 5.0 9.0 0.00 0.00 0.00 74 1035.0
20260507180626 54 292 6.0 9.0 0.00 0.00 0.00 74 1029.5
20260507180227 54 315 1.0 9.0 0.00 0.00 0.00 74 1016.5
20260507175727 54 337 4.0 9.0 0.00 0.00 0.00 74 1039.2
20260507175227 55 292 8.0 9.0 0.00 0.00 0.00 74 1043.7
20260507174727 55 315 8.0 9.0 0.00 0.00 0.00 74 1075.6
20260507174227 55 292 9.0 10.0 0.00 0.00 0.00 73 1024.0
20260507173727 55 315 9.0 12.0 0.00 0.00 0.00 73 1046.0
20260507173326 55 292 7.0 9.0 0.00 0.00 0.00 73 1065.8
20260507173227 55 0 6.0 9.0 0.00 0.00 0.00 73 1082.0
20260507172728 55 0 4.0 12.0 0.00 0.00 0.00 73 1072.1
20260507172227 55 337 5.0 8.0 0.00 0.00 0.00 73 1087.8
20260507171727 56 315 6.0 8.0 0.00 0.00 0.00 73 1091.0
20260507171227 56 315 5.0 14.0 0.00 0.00 0.00 72 1001.0
20260507170727 56 315 6.0 9.0 0.00 0.00 0.00 72 1059.5
20260507170227 57 0 9.0 12.0 0.00 0.00 0.00 72 1087.8
20260507170026 57 22 6.0 12.0 0.00 0.00 0.00 71 1078.4
20260507165727 57 315 2.0 12.0 0.00 0.00 0.00 71 1090.9
20260507165227 57 315 10.0 10.0 0.00 0.00 0.00 70 1090.9
20260507164728 57 337 8.0 10.0 0.00 0.00 0.00 70 962.4
20260507164227 58 292 6.0 9.0 0.00 0.00 0.00 69 1094.1
20260507163727 58 0 0.0 9.0 0.00 0.00 0.00 69 1046.0
20260507163227 58 337 3.0 6.0 0.00 0.00 0.00 70 1039.7
20260507162726 58 0 5.0 8.0 0.00 0.00 0.00 69 1072.1
20260507162227 58 292 8.0 10.0 0.00 0.00 0.00 69 1084.7
20260507161727 58 315 4.0 10.0 0.00 0.00 0.00 69 1068.9
20260507161227 58 22 6.0 11.0 0.00 0.00 0.00 69 1078.4
20260507160727 58 22 2.0 8.0 0.00 0.00 0.00 70 1081.5
20260507160227 58 337 3.0 9.0 0.00 0.00 0.00 70 1007.3
20260507155727 58 0 2.0 8.0 0.00 0.00 0.00 70 956.0
20260507155426 58 337 4.0 5.0 0.00 0.00 0.00 70 1030.2
20260507155228 58 315 4.0 6.0 0.00 0.00 0.00 70 1055.4
20260507154727 58 315 6.0 9.0 0.00 0.00 0.00 70 1046.0
20260507154227 58 292 2.0 11.0 0.00 0.00 0.00 69 1065.8
20260507153727 58 292 5.0 10.0 0.00 0.00 0.00 69 1004.1
20260507153227 59 0 6.0 8.0 0.00 0.00 0.00 69 994.7
20260507152728 59 292 5.0 6.0 0.00 0.00 0.00 68 1016.7
20260507152228 59 292 2.0 9.0 0.00 0.00 0.00 68 1049.1
20260507152126 60 337 7.0 9.0 0.00 0.00 0.00 68 1010.3
20260507151727 60 292 3.0 12.0 0.00 0.00 0.00 67 1001.0
20260507151227 60 292 7.0 8.0 0.00 0.00 0.00 67 977.4
20260507150727 60 292 7.0 9.0 0.00 0.00 0.00 68 997.5
20260507150227 60 315 5.0 7.0 0.00 0.00 0.00 68 1019.8
20260507145727 60 0 3.0 9.0 0.00 0.00 0.00 68 1084.7
20260507145227 60 22 2.0 11.0 0.00 0.00 0.00 68 964.2
20260507144826 60 247 4.0 11.0 0.00 0.00 0.00 68 943.1
20260507144728 60 270 7.0 9.0 0.00 0.00 0.00 68 900.4
20260507144227 60 292 3.0 7.0 0.00 0.00 0.00 68 1016.7
20260507143727 60 292 4.0 12.0 0.00 0.00 0.00 67 962.3
20260507143227 60 315 6.0 12.0 0.00 0.00 0.00 67 981.3
20260507142728 60 292 9.0 10.0 0.00 0.00 0.00 68 1094.1
20260507142236 60 292 4.0 10.0 0.00 0.00 0.00 68 1052.2
20260507142228 60 292 4.0 10.0 0.00 0.00 0.00 68 1052.2
20260507141728 60 315 4.0 13.0 0.00 0.00 0.00 68 1015.3
20260507141527 60 337 3.0 13.0 0.00 0.00 0.00 68 1007.3
20260507141228 60 292 6.0 10.0 0.00 0.00 0.00 68 968.3
20260507140728 60 292 5.0 12.0 0.00 0.00 0.00 68 976.1
20260507140228 60 292 9.0 15.0 0.00 0.00 0.00 67 972.4
20260507135728 61 292 7.0 14.0 0.00 0.00 0.00 67 965.2
20260507135228 61 315 6.0 11.0 0.00 0.00 0.00 67 982.8
20260507134728 61 337 4.0 10.0 0.00 0.00 0.00 68 965.3
20260507134227 61 315 8.0 11.0 0.00 0.00 0.00 68 952.9
20260507133728 61 292 10.0 11.0 0.00 0.00 0.00 68 1004.1
20260507133228 61 292 3.0 11.0 0.00 0.00 0.00 68 1010.4
20260507132728 61 292 5.0 13.0 0.00 0.00 0.00 69 968.6
20260507132228 60 292 10.0 10.0 0.00 0.00 0.00 70 977.8
20260507131728 60 292 3.0 11.0 0.00 0.00 0.00 70 1042.8
20260507131228 60 315 6.0 11.0 0.00 0.00 0.00 70 1016.4
20260507130927 60 292 11.0 12.0 0.00 0.00 0.00 71 1008.4
20260507130728 60 270 5.0 12.0 0.00 0.00 0.00 71 1067.8
20260507130228 60 315 5.0 11.0 0.00 0.00 0.00 72 1052.2
20260507125728 60 292 7.0 11.0 0.00 0.00 0.00 71 974.8
20260507125228 60 315 7.0 9.0 0.00 0.00 0.00 71 968.6
20260507124728 60 315 9.0 10.0 0.00 0.00 0.00 71 1039.7
20260507124228 60 292 8.0 12.0 0.00 0.00 0.00 73 996.9
20260507123728 59 270 4.0 11.0 0.00 0.00 0.00 73 966.1
20260507123627 59 270 3.0 11.0 0.00 0.00 0.00 73 962.3
20260507123228 59 270 4.0 13.0 0.00 0.00 0.00 73 888.0
20260507122728 59 270 10.0 11.0 0.00 0.00 0.00 73 976.0
20260507122228 60 292 7.0 13.0 0.00 0.00 0.00 73 971.8
20260507121728 59 247 11.0 12.0 0.00 0.00 0.00 73 1048.4
20260507121228 60 292 6.0 12.0 0.00 0.00 0.00 73 968.1
20260507120728 60 315 8.0 10.0 0.00 0.00 0.00 73 961.2
20260507120327 60 270 9.0 9.0 0.00 0.00 0.00 73 1052.2
20260507120228 60 247 3.0 9.0 0.00 0.00 0.00 73 1046.0
20260507115728 60 270 1.0 7.0 0.00 0.00 0.00 74 1016.6
20260507115228 60 270 3.0 8.0 0.00 0.00 0.00 73 1016.7
20260507114728 60 292 5.0 6.0 0.00 0.00 0.00 73 1042.8
20260507114228 60 270 4.0 5.0 0.00 0.00 0.00 73 1027.1
20260507113728 60 270 4.0 8.0 0.00 0.00 0.00 73 923.6
20260507113228 60 292 8.0 8.0 0.00 0.00 0.00 74 1046.0
20260507113027 60 0 4.0 6.0 0.00 0.00 0.00 74 1005.8
20260507112728 60 270 6.0 6.0 0.00 0.00 0.00 75 1019.7
20260507112228 60 292 2.0 5.0 0.00 0.00 0.00 77 979.2
20260507111728 58 337 2.0 8.0 0.00 0.00 0.00 78 1061.6
20260507111228 58 0 1.0 8.0 0.00 0.00 0.00 78 1004.1
20260507110728 58 315 4.0 8.0 0.00 0.00 0.00 78 1032.9
20260507110228 58 292 4.0 7.0 0.00 0.00 0.00 77 1094.1
20260507105727 58 292 4.0 8.0 0.00 0.00 0.00 77 1042.8
20260507105228 59 270 3.0 9.0 0.00 0.00 0.00 79 926.7
20260507104728 58 225 4.0 8.0 0.00 0.00 0.00 81 960.8
20260507104228 57 292 2.0 7.0 0.00 0.00 0.00 82 1049.1
20260507103728 56 292 4.0 8.0 0.00 0.00 0.00 82 1004.1
20260507103228 56 315 4.0 6.0 0.00 0.00 0.00 82 1062.7
20260507102728 56 270 2.0 4.0 0.00 0.00 0.00 82 1007.3
20260507102427 56 270 2.0 6.0 0.00 0.00 0.00 82 952.9
20260507102228 56 315 3.0 7.0 0.00 0.00 0.00 82 988.3
20260507101728 56 292 3.0 6.0 0.00 0.00 0.00 82 981.0
20260507101228 56 315 4.0 5.0 0.00 0.00 0.00 82 956.0
20260507100728 55 247 1.0 7.0 0.00 0.00 0.00 82 963.9
20260507100228 55 315 3.0 7.0 0.00 0.00 0.00 81 937.0
20260507095728 55 315 6.0 11.0 0.00 0.00 0.00 81 1026.0
20260507095228 56 337 8.0 11.0 0.00 0.00 0.00 80 1004.5
20260507095127 56 315 5.0 11.0 0.00 0.00 0.00 80 999.4
20260507095103 56 202 3.0 9.0 0.00 0.00 0.00 79 982.7
20260507094728 56 202 3.0 9.0 0.00 0.00 0.00 79 982.7
20260507094228 57 67 6.0 10.0 0.00 0.00 0.00 79 1042.3
20260507093728 57 270 2.0 10.0 0.00 0.00 0.00 78 1048.2
20260507093228 57 292 6.0 11.0 0.00 0.00 0.00 79 920.5
20260507092728 57 270 5.0 11.0 0.00 0.00 0.00 79 1038.3
20260507092228 57 315 4.0 11.0 0.00 0.00 0.00 79 1022.8
20260507091827 57 292 8.0 11.0 0.00 0.00 0.00 79 1094.0
20260507091728 57 292 11.0 11.0 0.00 0.00 0.00 79 970.1
20260507091228 57 247 5.0 8.0 0.00 0.00 0.00 80 1058.5
20260507090728 57 292 8.0 12.0 0.00 0.00 0.00 80 1037.0
20260507090228 57 0 3.0 11.0 0.00 0.00 0.00 79 953.7
20260507085728 58 292 8.0 10.0 0.00 0.00 0.00 79 987.3
20260507085228 58 292 4.0 9.0 0.00 0.00 0.00 80 997.8
20260507084728 58 270 3.0 11.0 0.00 0.00 0.00 81 1055.4
20260507084527 57 292 4.0 8.0 0.00 0.00 0.00 81 1039.7
20260507084228 57 202 2.0 6.0 0.00 0.00 0.00 81 1010.6
20260507083728 57 292 6.0 10.0 0.00 0.00 0.00 81 1045.9
20260507083228 57 292 10.0 10.0 0.00 0.00 0.00 81 1036.5
20260507082728 57 270 6.0 10.0 0.00 0.00 0.00 80 1024.5
20260507082228 58 292 8.0 8.0 0.00 0.00 0.00 79 997.9
20260507081728 58 315 5.0 9.0 0.00 0.00 0.00 79 1010.4
20260507081227 58 292 9.0 9.0 0.00 0.00 0.00 79 1016.5
20260507080728 59 292 4.0 7.0 0.00 0.00 0.00 78 965.7
20260507080228 59 270 5.0 8.0 0.00 0.00 0.00 78 997.8
20260507075728 59 315 8.0 8.0 0.00 0.00 0.00 78 1016.6
20260507075228 59 337 3.0 7.0 0.00 0.00 0.00 78 997.8
20260507074728 59 337 4.0 9.0 0.00 0.00 0.00 77 961.8
20260507074228 60 337 9.0 11.0 0.00 0.00 0.00 76 1007.3
20260507073927 60 315 6.0 10.0 0.00 0.00 0.00 76 1043.6
20260507073728 60 292 5.0 10.0 0.00 0.00 0.00 76 1055.4
20260507073353 60 292 3.0 10.0 0.00 0.00 0.00 76 1004.1
20260507073228 60 270 2.0 8.0 0.00 0.00 0.00 76 1061.6
20260507072728 60 292 3.0 10.0 0.00 0.00 0.00 76 1004.1
20260507072228 61 337 3.0 11.0 0.00 0.00 0.00 76 994.7
20260507071728 61 315 7.0 9.0 0.00 0.00 0.00 77 1016.3
20260507071228 61 315 9.0 10.0 0.00 0.00 0.00 77 1013.5
20260507070728 60 337 4.0 9.0 0.00 0.00 0.00 78 965.5
20260507070627 60 337 4.0 8.0 0.00 0.00 0.00 78 1013.3
20260507070228 60 292 7.0 8.0 0.00 0.00 0.00 79 1019.8
20260507065728 59 270 3.0 10.0 0.00 0.00 0.00 79 973.4
20260507065305 59 0 5.0 11.0 0.00 0.00 0.00 79 1049.1
20260507065228 59 0 5.0 11.0 0.00 0.00 0.00 79 1049.1
20260507064730 59 270 6.0 10.0 0.00 0.00 0.00 79 1046.0
20260507064228 59 292 9.0 12.0 0.00 0.00 0.00 80 1010.3
20260507063728 59 292 7.0 12.0 0.00 0.00 0.00 80 1058.5
20260507063327 59 292 10.0 12.0 0.00 0.00 0.00 79 1090.9
20260507063228 59 292 7.0 12.0 0.00 0.00 0.00 79 1001.0
20260507062729 60 292 9.0 12.0 0.00 0.00 0.00 78 1026.0
20260507062228 60 292 8.0 11.0 0.00 0.00 0.00 76 1022.8
20260507061728 60 292 5.0 8.0 0.00 0.00 0.00 76 1097.2
20260507061229 61 247 4.0 8.0 0.00 0.00 0.00 76 971.7
20260507060738 61 292 4.0 6.0 0.00 0.00 0.00 75 961.4
20260507060728 61 292 4.0 6.0 0.00 0.00 0.00 75 961.4
20260507060228 61 247 2.0 9.0 0.00 0.00 0.00 74 974.8
20260507060027 62 270 4.0 9.0 0.00 0.00 0.00 74 1013.5
20260507055729 62 270 4.0 8.0 0.00 0.00 0.00 73 1067.9
20260507055229 63 292 4.0 4.0 0.00 0.00 0.00 72 1002.7
20260507054728 64 292 4.0 7.0 0.00 0.00 0.00 71 1052.2
20260507054228 64 270 2.0 7.0 0.00 0.00 0.00 72 1046.0
20260507053728 64 270 4.0 4.0 0.00 0.00 0.00 72 1015.4
20260507053228 64 225 2.0 4.0 0.00 0.00 0.00 71 965.4
20260507052727 64 270 0.0 2.0 0.00 0.00 0.00 71 981.0
20260507052228 64 270 2.0 4.0 0.00 0.00 0.00 70 1039.7
20260507051728 64 292 3.0 3.0 0.00 0.00 0.00 69 1055.4
20260507051228 66 337 2.0 5.0 0.00 0.00 0.00 68 962.3
20260507050728 66 0 1.0 2.0 0.00 0.00 0.00 68 1010.4
20260507050228 67 270 1.0 7.0 0.00 0.00 0.00 68 1052.2
20260507045728 68 292 4.0 6.0 0.00 0.00 0.00 68 1046.0
20260507045428 68 292 4.0 6.0 0.00 0.00 0.00 69 1022.9
20260507045228 67 292 5.0 6.0 0.00 0.00 0.00 73 1055.4
20260507044729 65 270 3.0 6.0 0.00 0.00 0.00 78 1047.7
20260507044229 63 270 5.0 5.0 0.00 0.00 0.00 80 1001.0
20260507043729 62 292 4.0 4.0 0.00 0.00 0.00 82 1012.1
20260507043229 61 292 4.0 4.0 0.00 0.00 0.00 82 1036.5
20260507042729 60 292 2.0 3.0 0.00 0.00 0.00 83 1058.5
20260507042229 60 270 1.0 3.0 0.00 0.00 0.00 83 1046.0
20260507042128 60 292 1.0 3.0 0.00 0.00 0.00 83 962.3
20260507041729 60 270 1.0 2.0 0.00 0.00 0.00 83 1055.4
20260507041229 60 270 0.0 1.0 0.00 0.00 0.00 84 968.5
20260507040729 59 270 0.0 3.0 0.00 0.00 0.00 84 968.5
20260507040229 59 225 0.0 2.0 0.00 0.00 0.00 83 922.2
20260507035729 58 157 0.0 1.0 0.00 0.00 0.00 83 997.9
20260507035300 58 157 0.0 1.0 0.00 0.00 0.00 83 968.6
20260507035229 58 157 0.0 1.0 0.00 0.00 0.00 83 968.6
20260507034828 58 135 0.0 0.0 0.00 0.00 0.00 83 1061.6
20260507034729 58 135 0.0 0.0 0.00 0.00 0.00 83 971.7
20260507034229 58 225 0.0 0.0 0.00 0.00 0.00 84 982.8
20260507033729 58 112 0.0 0.0 0.00 0.00 0.00 84 1055.4
20260507033229 57 180 0.0 2.0 0.00 0.00 0.00 84 1001.0
20260507032734 52 157 0.0 2.0 0.00 0.00 0.00 83 1055.4
20260507032729 57 157 0.0 2.0 0.00 0.00 0.00 83 1055.4
20260507032301 57 180 1.0 3.0 0.00 0.00 0.00 83 1060.2
20260507032229 57 180 1.0 3.0 0.00 0.00 0.00 83 1060.2
20260507031729 57 270 2.0 4.0 0.00 0.00 0.00 83 1060.3
20260507031528 57 247 1.0 2.0 0.00 0.00 0.00 83 1012.2
20260507031229 57 225 2.0 2.0 0.00 0.00 0.00 83 1049.1
20260507030729 57 202 2.0 2.0 0.00 0.00 0.00 83 976.5
20260507030229 57 202 2.0 3.0 0.00 0.00 0.00 83 1016.5
20260507025729 57 247 0.0 3.0 0.00 0.00 0.00 83 959.2